Presure
160 179 187 167 167 182 167 167 174 176 174 182 174 185 166 156 197 214 202 218 229 247 286 286 296 317 382 388 420 419 412 393 373 350 344 350 344 359 309 308 287 268 250
150 197 178 150 164 178 171 186 185 168 182 174 156 188 198 212 215 194 190 225 246 290 294 307 327 401 440 430 420 404 397 401 396 387 336 361 344 337 340 311 298 270 256
175 179 188 192 165 162 187 180 192 194 186 204 202 192 195 207 176 212 223 228 249 301 306 330 428 425 409 396 392 400 394 391 388 378 368 351 366 335 335 323 307 287 270
184 175 180 173 169 186 179 187 196 190 184 180 208 194 207 182 200 207 241 241 277 307 313 447 422 405 407 427 404 392 394 380 385 387 375 356 343 347 345 337 335 303 281
185 188 179 167 174 189 167 181 210 181 198 208 179 186 195 216 228 228 228 306 305 311 388 434 421 408 392 389 388 389 387 377 363 369 387 371 346 338 350 347 350 326 293
177 182 188 192 183 158 200 210 184 199 181 202 201 209 218 226 206 232 241 313 312 365 367 393 376 369 377 376 376 373 369 375 357 353 361 377 357 342 325 332 346 333 327
187 185 180 183 198 186 205 195 170 204 199 191 175 222 227 227 226 244 270 316 358 372 354 381 364 352 349 349 345 353 357 364 358 352 355 366 368 345 321 328 331 337 348
191 188 190 178 177 174 202 183 216 193 210 213 213 215 196 235 246 268 309 362 375 359 341 368 356 347 340 338 336 341 345 351 357 358 361 352 349 348 350 327 324 320 335
173 195 195 192 192 203 174 212 195 200 190 201 217 205 219 237 249 301 315 383 365 349 338 374 351 344 340 341 354 351 345 347 357 380 368 353 366 350 345 346 352 369 373
194 192 184 168 208 197 204 214 210 209 200 210 216 223 242 247 242 318 390 378 363 343 334 369 347 341 340 359 368 365 359 355 367 385 410 355 398 353 354 341 334 323 313
191 187 207 181 188 204 209 211 192 196 210 215 220 231 242 235 315 371 380 369 355 341 336 359 344 338 340 366 390 382 381 387 405 430 369 390 395 341 322 312 308 296 300
202 205 212 190 214 199 182 212 219 202 219 224 242 245 284 291 379 386 378 365 349 341 335 354 343 334 349 384 429 452 460 415 460 383 361 344 327 314 309 294 294 294 292
205 196 186 214 206 197 188 203 209 213 222 250 244 233 308 329 392 380 293 303 339 339 336 346 338 334 353 390 430 403 407 388 358 342 338 320 293 296 284 291 289 277 279
200 183 214 200 205 210 200 182 211 224 239 239 238 247 333 411 391 303 314 360 335 338 336 343 338 335 359 423 443 408 376 343 341 337 295 285 296 294 283 285 276 280 279
207 217 212 200 208 214 213 215 225 236 241 236 251 297 427 380 307 321 328 349 341 334 333 343 337 337 366 447 379 389 377 336 320 312 305 305 298 285 275 267 276 274 273
217 200 206 206 216 217 215 229 231 244 253 250 260 427 384 325 335 330 329 334 318 330 332 343 331 335 375 445 364 350 334 318 307 304 296 299 269 280 268 269 274 270 282
175 204 213 218 216 218 225 231 240 245 241 306 409 360 331 346 334 335 330 335 328 312 329 342 329 334 377 430 342 332 330 318 306 303 294 287 273 267 282 269 253 259 272
210 210 228 220 223 224 229 223 250 250 264 413 287 326 345 345 340 335 331 329 321 309 327 345 329 335 402 372 328 329 310 313 308 289 289 285 284 277 278 267 272 267 250
206 226 218 236 224 229 230 253 257 257 426 261 319 341 342 316 311 321 332 322 323 317 327 341 335 323 355 344 322 307 309 307 301 298 290 272 274 263 271 265 262 270 264
223 218 239 225 235 227 262 266 259 380 262 336 346 325 298 300 300 321 332 325 329 321 335 325 334 318 365 332 328 307 307 309 285 293 283 281 272 269 269 254 262 254 264
226 228 235 232 249 257 253 262 286 266 336 335 317 302 293 307 301 293 303 333 322 326 336 316 338 317 354 343 329 322 303 292 297 272 293 277 271 270 267 265 261 259 258
234 236 233 250 278 252 290 299 341 314 340 317 300 293 300 298 295 299 302 332 326 316 310 314 340 322 317 356 376 335 314 296 288 281 269 287 277 274 270 255 265 262 253
236 240 270 262 245 351 300 330 342 334 311 297 303 296 299 295 290 300 313 309 335 317 316 321 308 327 310 336 375 348 322 309 290 284 274 278 276 270 279 259 268 260 254
271 281 257 346 357 268 326 286 304 300 292 305 291 299 304 300 301 304 310 310 327 333 312 305 307 332 314 310 388 344 336 314 297 294 282 281 275 270 276 265 279 271 253
258 284 345 270 313 324 280 308 294 308 315 313 315 318 320 318 317 314 314 315 313 335 316 309 314 306 323 306 389 386 333 323 311 297 292 281 274 276 276 273 268 275 275
320 280 321 311 276 317 313 346 362 367 367 363 353 341 337 331 327 319 315 307 311 331 330 308 297 302 324 309 326 389 370 325 319 308 302 297 291 289 288 287 285 271 284
Wind_Speed
66 56 50 67 69 61 70 79 82 80 78 86 98 97 106 80 112 121 118 133 135 137 129 130 132 135 107 93 79 74 68 69 73 59 63 72 74 84 90 90 94 101 112
75 61 70 78 77 64 72 85 88 83 90 98 79 91 102 116 121 113 122 137 144 130 129 132 134 93 64 64 62 59 57 57 60 58 62 58 77 71 84 92 96 106 112
69 59 66 74 77 82 86 84 95 95 86 98 101 98 101 119 93 128 141 136 147 132 131 133 73 62 61 59 58 55 52 51 53 54 56 60 65 83 80 90 98 104 108
71 63 65 77 70 89 89 92 101 87 93 100 111 103 120 113 114 127 145 145 131 130 132 60 61 62 56 41 39 41 41 42 46 49 53 56 64 73 77 79 86 102 110
75 79 80 71 73 91 85 90 99 89 103 112 106 109 110 133 146 140 137 130 129 129 83 54 53 51 50 42 38 40 40 39 39 40 39 54 64 63 65 64 74 85 109
70 79 88 96 83 90 102 107 86 100 101 104 108 122 139 144 120 143 138 127 129 95 78 57 54 50 47 44 43 39 34 35 37 37 36 34 52 63 64 68 66 81 81
88 86 89 85 100 95 106 92 96 110 102 107 103 136 142 139 133 145 136 123 97 73 76 53 51 52 51 48 46 46 41 40 39 40 36 32 37 59 65 64 59 57 56
93 91 95 81 83 85 103 85 115 95 123 127 125 134 113 151 143 137 121 95 70 69 73 56 52 50 50 49 47 47 45 42 42 39 35 34 39 44 54 62 59 54 53
83 103 97 95 94 105 87 112 95 106 108 109 141 124 135 148 143 132 120 68 64 66 66 54 53 52 51 54 52 47 45 43 44 41 35 31 40 44 40 39 40 40 34
98 95 82 88 105 96 107 117 119 117 108 134 138 147 155 136 131 117 69 64 60 64 62 54 54 54 56 57 51 44 40 41 42 40 33 29 36 35 29 18 21 23 26
95 89 106 94 81 105 109 117 105 99 131 143 143 151 140 131 117 83 65 62 61 60 59 56 53 54 57 60 51 42 40 37 36 35 23 25 27 28 29 31 30 28 26
101 107 107 81 114 100 93 125 127 115 143 147 148 140 130 128 77 64 60 62 61 59 57 56 50 54 57 56 43 33 26 21 19 16 25 32 35 32 31 26 25 24 20
111 93 82 116 110 95 104 107 129 135 146 150 140 123 116 106 61 61 83 77 61 57 56 55 49 53 55 47 30 19 12 9 25 28 35 35 24 28 24 25 24 24 23
106 84 118 106 111 121 105 101 130 145 150 134 131 129 100 57 57 78 74 55 57 55 53 53 47 49 51 35 21 7 9 24 29 34 20 21 29 29 26 25 22 23 22
117 119 119 100 121 131 129 132 143 151 143 127 140 123 57 60 76 69 65 55 52 50 47 47 43 45 46 25 8 5 19 32 28 31 31 30 33 29 25 20 19 22 22
119 108 109 112 132 134 129 148 148 149 146 143 134 59 62 68 60 59 59 54 52 48 44 43 39 41 39 19 15 28 31 28 24 30 30 27 26 26 22 19 17 19 15
91 106 126 134 129 130 143 145 154 145 137 118 62 67 71 60 57 54 54 51 47 49 41 38 35 37 32 13 25 29 33 29 29 32 31 31 27 24 26 24 23 17 12
117 115 139 131 135 136 141 125 148 144 148 57 104 72 62 57 53 49 50 49 47 45 37 34 31 32 27 17 26 32 24 32 34 26 29 29 25 24 26 25 22 27 25
102 138 130 145 132 141 134 148 144 140 54 109 72 59 55 55 53 48 46 46 45 42 35 31 26 25 13 18 33 25 27 32 28 33 30 24 23 21 24 23 22 22 23
133 127 151 128 144 130 150 148 139 67 113 63 55 54 61 58 56 49 44 43 41 38 31 31 24 23 18 17 32 33 32 33 22 31 27 29 26 26 27 24 25 22 25
143 137 152 143 155 157 141 145 119 111 63 57 58 61 62 53 53 53 49 42 39 37 30 30 22 21 19 15 25 41 37 29 31 21 34 29 28 30 32 33 31 31 30
151 152 145 161 145 138 127 103 64 74 57 59 62 64 59 57 56 52 50 42 37 37 36 28 22 19 20 16 31 39 44 38 31 28 23 32 31 32 32 32 35 36 33
147 159 162 143 126 85 91 73 62 60 63 67 62 62 60 59 59 55 49 47 37 35 35 28 27 20 20 18 27 37 43 47 37 35 29 31 31 30 37 34 35 36 36
164 146 140 92 70 114 79 85 75 73 72 68 68 65 61 60 58 54 52 46 38 35 34 33 26 21 20 20 20 36 40 44 44 43 39 38 36 33 35 34 39 39 39
136 140 82 117 96 79 94 79 80 76 73 72 69 67 62 60 56 53 49 47 41 35 34 34 28 25 20 21 17 32 39 42 46 47 47 44 36 38 39 35 32 37 40
103 120 93 92 102 88 86 77 71 66 64 62 62 61 58 55 52 51 49 48 44 37 35 34 33 26 21 20 19 25 39 41 45 46 47 48 47 47 48 47 48 43 46
Wind_Direction
295 300 299 284 290 314 298 297 303 304 313 305 306 315 304 306 319 319 312 321 321 321 313 309 307 305 301 298 290 286 282 279 276 268 263 241 246 238 235 237 233 231 232
298 313 307 310 290 315 303 317 317 309 305 299 313 308 315 325 325 305 307 321 322 316 312 309 309 302 297 295 293 290 285 278 269 263 258 254 236 240 233 231 228 226 229
314 307 318 318 289 292 317 313 315 316 304 320 319 313 314 325 311 322 320 321 322 312 313 313 307 305 302 298 294 290 285 278 270 257 247 249 243 236 238 229 230 226 226
316 301 313 302 297 315 309 313 313 309 304 301 319 314 321 305 310 316 324 320 318 315 316 310 307 305 306 294 296 291 283 277 274 264 249 237 243 242 242 236 231 229 227
316 317 311 299 305 313 307 312 316 301 317 321 302 307 311 324 324 322 320 315 317 317 315 313 311 308 309 306 302 300 282 273 270 268 270 245 238 242 246 248 240 230 228
314 314 315 312 308 295 310 313 308 320 305 320 319 321 323 322 315 323 323 317 317 318 317 319 317 317 315 313 310 306 299 283 273 275 269 259 245 231 238 244 248 237 237
311 310 305 307 308 306 313 317 299 321 320 309 306 328 325 322 320 323 322 318 317 318 318 318 316 316 316 317 316 315 309 297 278 267 267 260 240 235 238 244 247 249 248
307 309 308 303 302 309 316 304 319 314 326 326 321 324 315 324 324 323 319 317 317 319 318 316 312 311 311 312 310 307 301 296 288 273 261 252 238 240 242 244 250 251 255
299 305 306 309 311 312 303 318 316 319 314 318 323 318 321 322 325 321 317 315 316 318 319 315 312 311 312 310 305 297 294 292 287 280 257 247 235 237 241 247 254 260 255
303 306 306 296 310 310 318 317 323 323 319 323 323 323 323 323 320 317 313 314 317 318 320 320 315 315 314 313 305 297 290 285 283 277 262 250 234 225 225 212 212 194 202
307 307 307 302 304 316 316 320 314 315 320 321 321 321 322 321 317 313 312 314 316 318 321 323 318 317 318 317 307 299 291 284 275 268 235 232 213 170 174 179 186 202 208
305 306 309 306 314 312 306 321 319 318 322 321 323 323 321 321 312 310 310 313 315 318 321 325 321 320 322 319 312 300 285 270 257 188 172 161 167 169 170 179 193 197 201
307 307 304 313 316 313 311 319 320 320 319 320 322 320 317 313 307 309 316 314 315 317 320 327 322 323 325 322 314 298 278 211 162 167 163 168 180 166 176 178 180 197 206
307 301 310 312 318 318 316 308 318 318 319 320 321 323 315 306 307 311 311 309 315 316 319 325 321 326 326 324 309 277 197 169 167 161 194 190 165 170 168 180 190 205 212
306 307 312 312 316 316 316 317 318 318 319 317 322 319 307 308 310 308 310 309 311 313 318 323 321 328 326 320 277 218 161 160 168 163 159 158 166 167 179 189 197 208 209
303 307 313 314 315 315 317 318 317 318 318 319 322 309 309 311 308 308 309 313 315 316 317 322 321 329 326 308 177 162 163 167 170 163 160 161 187 167 184 189 192 206 199
297 311 310 311 313 317 315 317 316 318 317 313 308 309 310 311 311 310 311 315 316 316 316 320 320 329 325 280 185 185 171 173 170 166 162 168 182 181 189 190 211 213 200
309 309 308 310 312 314 316 313 317 317 319 301 316 307 310 310 311 313 314 315 314 315 315 318 318 328 324 208 204 188 202 183 173 187 180 179 174 179 179 188 193 191 213
306 308 310 309 311 313 313 315 315 318 301 317 305 304 307 308 310 314 314 314 312 313 315 318 313 323 304 216 210 232 210 197 194 189 183 199 190 204 197 199 206 203 204
308 308 308 310 310 310 312 315 314 304 314 300 301 302 305 306 308 314 313 312 310 309 308 314 309 312 310 235 216 227 219 204 215 205 204 199 204 207 208 224 216 228 221
306 307 307 309 308 310 312 312 309 312 299 298 300 302 304 305 306 307 313 309 309 306 303 310 302 303 315 256 225 214 227 231 213 218 209 208 210 212 211 217 226 230 237
305 305 307 306 308 310 306 305 297 302 295 298 300 301 302 302 304 306 307 306 305 304 303 304 298 292 298 274 216 214 222 231 230 229 223 217 218 220 218 228 232 236 242
304 304 305 305 307 300 303 298 296 295 297 299 299 299 299 299 300 301 302 302 299 296 295 293 299 282 284 295 228 217 217 223 234 234 231 234 230 227 230 227 234 237 240
300 302 303 298 294 304 297 301 299 298 298 298 297 297 296 295 294 294 294 295 295 288 288 290 289 277 273 279 249 226 218 220 230 233 238 239 236 236 239 237 243 243 242
301 300 295 301 298 296 301 297 297 297 295 293 291 289 288 288 287 286 285 286 287 284 279 279 276 282 269 270 266 217 223 221 221 229 233 241 240 243 246 245 248 259 260
295 298 295 295 299 295 294 292 290 289 287 285 284 283 282 280 279 279 278 279 280 279 269 269 274 271 260 261 269 219 216 224 223 226 231 236 242 247 252 256 258 257 265